Location: ???????
(54.9996°N, 37.9529°E)
Time: 14:28:26
(UTC+00:00)

CZ-4 R/B - Pass Details

Date: 14 April 2024
Orbit: 677 x 749 km, 98.6° (Epoch: 18 May)

Event Time Altitude Azimuth Distance (km) Brightness Sun altitude
Rises 01:21:18 0° 14° (NNE) 3,139 7.9 -9.3°
Reaches altitude 10° 01:23:37 10° 12° (NNE) 2,203 7.0 -9.1°
Maximum altitude 01:28:23 66° 291° (WNW) 772 3.9 -8.5°
Drops below altitude 10° 01:33:02 10° 210° (SSW) 2,144 5.8 -7.9°
Enters shadow 01:34:03 - 209° (SSW) 2,558 6.2 -7.8°
